When you browse on this site, cookies collect data to enhance your experience and personalize the content and advertising you see.
Visit our Privacy Policy to learn more. By continuing to use the site, you agree to this use of cookies and data.
  • In Portugal
  • List of Countries
  • For 7 days
  • Water Temperature
  • Satellite Maps
  • Weather Map
  • Weather Widgets
  • user-avatar
    Login

    Hourly Weather Szczytnica

    Today, 20 March, Wednesday

    Time Temperature Precipitation Wind Pressure Humidity
    00:00 +1°C° 0 mm 2 mps 756 mmHg 83%
    01:00 +1°C° 0 mm 2 mps 756 mmHg 86%
    02:00 +1°C° 0 mm 2 mps 756 mmHg 87%
    03:00 +1°C° 0 mm 2 mps 756 mmHg 89%
    04:00 -1°C° 0 mm 2 mps 756 mmHg 90%
    05:00 +1°C° 0 mm 2 mps 757 mmHg 89%
    06:00 +1°C° 0 mm 2 mps 757 mmHg 87%
    07:00 +1°C° 0 mm 2 mps 757 mmHg 84%
    08:00 +2°C° 0 mm 3 mps 757 mmHg 75%
    09:00 +4°C° 0 mm 3 mps 758 mmHg 66%
    10:00 +7°C° 0 mm 3 mps 758 mmHg 57%
    11:00 +8°C° 0 mm 3 mps 758 mmHg 53%
    12:00 +9°C° 0 mm 3 mps 758 mmHg 49%
    13:00 +10°C° 0 mm 3 mps 758 mmHg 44%
    14:00 +10°C° 0 mm 3 mps 758 mmHg 44%
    15:00 +10°C° 0 mm 3 mps 757 mmHg 44%
    16:00 +10°C° 0 mm 3 mps 757 mmHg 44%
    17:00 +9°C° 0 mm 3 mps 757 mmHg 50%
    18:00 +7°C° 0 mm 2 mps 757 mmHg 55%
    19:00 +6°C° 0 mm 2 mps 757 mmHg 61%
    20:00 +5°C° 0 mm 2 mps 758 mmHg 62%
    21:00 +5°C° 0 mm 2 mps 758 mmHg 64%
    22:00 +4°C° 0 mm 3 mps 758 mmHg 65%
    23:00 +4°C° 0 mm 3 mps 758 mmHg 65%

    Tomorrow, 21 March, Thursday

    Time Temperature Precipitation Wind Pressure Humidity
    00:00 +4°C° 0 mm 3 mps 758 mmHg 64%
    01:00 +3°C° 0 mm 3 mps 759 mmHg 64%
    02:00 +3°C° 0 mm 3 mps 758 mmHg 65%
    03:00 +3°C° 0 mm 3 mps 758 mmHg 67%
    04:00 +3°C° 0 mm 3 mps 758 mmHg 69%
    05:00 +3°C° 0 mm 3 mps 758 mmHg 70%
    06:00 +3°C° 0 mm 3 mps 758 mmHg 71%
    07:00 +4°C° 0 mm 3 mps 759 mmHg 73%
    08:00 +5°C° 0 mm 3 mps 759 mmHg 71%
    09:00 +8°C° 0 mm 3 mps 759 mmHg 70%
    10:00 +10°C° 0 mm 4 mps 759 mmHg 68%
    11:00 +11°C° 0 mm 3 mps 759 mmHg 65%
    12:00 +12°C° 0 mm 3 mps 759 mmHg 62%
    13:00 +14°C° 0 mm 3 mps 759 mmHg 59%
    14:00 +14°C° 0 mm 3 mps 758 mmHg 59%
    15:00 +14°C° 0 mm 3 mps 758 mmHg 59%
    16:00 +14°C° 0 mm 3 mps 757 mmHg 59%
    17:00 +14°C° 0 mm 2 mps 757 mmHg 66%
    18:00 +12°C° 0 mm 2 mps 757 mmHg 73%
    19:00 +11°C° 0 mm 1 mps 757 mmHg 81%
    20:00 +10°C° 0 mm 1 mps 757 mmHg 83%
    21:00 +10°C° 0 mm 1 mps 757 mmHg 86%
    22:00 +9°C° 0 mm 1 mps 757 mmHg 88%
    23:00 +9°C° 0 mm 1 mps 758 mmHg 89%

    Day after tomorrow, 22 March, Friday

    Time Temperature Precipitation Wind Pressure Humidity
    00:00 +9°C° 0 mm 1 mps 758 mmHg 89%
    01:00 +7°C° 0 mm 2 mps 758 mmHg 90%
    02:00 +7°C° 0 mm 2 mps 757 mmHg 90%
    03:00 +7°C° 0 mm 2 mps 757 mmHg 90%
    04:00 +7°C° 0 mm 2 mps 757 mmHg 90%
    05:00 +7°C° 0 mm 2 mps 757 mmHg 89%
    06:00 +7°C° 0 mm 2 mps 757 mmHg 88%
    07:00 +7°C° 0 mm 2 mps 757 mmHg 87%
    08:00 +11°C° 0 mm 1 mps 757 mmHg 79%
    09:00 +13°C° 0 mm 1 mps 758 mmHg 70%
    10:00 +15°C° 0 mm 1 mps 758 mmHg 62%
    11:00 +16°C° 0 mm 1 mps 757 mmHg 58%
    12:00 +16°C° 0 mm 0 mps 757 mmHg 54%
    13:00 +17°C° 0 mm 0 mps 757 mmHg 50%
    14:00 +18°C° 0 mm 0 mps 756 mmHg 49%
    15:00 +18°C° 0 mm 0 mps 756 mmHg 48%
    16:00 +20°C° 0 mm 1 mps 755 mmHg 47%
    17:00 +18°C° 0 mm 1 mps 755 mmHg 53%
    18:00 +15°C° 0 mm 1 mps 755 mmHg 59%
    19:00 +14°C° 0 mm 1 mps 755 mmHg 65%
    20:00 +13°C° 0 mm 1 mps 755 mmHg 68%
    21:00 +13°C° 0 mm 1 mps 755 mmHg 70%
    22:00 +12°C° 0 mm 2 mps 755 mmHg 73%
    23:00 +12°C° 0 mm 2 mps 755 mmHg 73%

    23 March, Saturday

    Time Temperature Precipitation Wind Pressure Humidity
    00:00 +10°C° 0 mm 2 mps 754 mmHg 73%
    01:00 +10°C° 0 mm 2 mps 754 mmHg 72%
    02:00 +10°C° 0 mm 2 mps 754 mmHg 73%
    03:00 +9°C° 0 mm 2 mps 754 mmHg 73%
    04:00 +9°C° 0 mm 3 mps 754 mmHg 73%
    05:00 +9°C° 0 mm 3 mps 754 mmHg 72%
    06:00 +10°C° 0 mm 3 mps 754 mmHg 71%
    07:00 +10°C° 0 mm 3 mps 754 mmHg 70%
    08:00 +11°C° 0 mm 3 mps 754 mmHg 65%
    09:00 +13°C° 0 mm 3 mps 754 mmHg 61%
    10:00 +15°C° 0 mm 4 mps 754 mmHg 56%
    11:00 +17°C° 0 mm 4 mps 754 mmHg 54%
    12:00 +17°C° 0 mm 4 mps 754 mmHg 52%
    13:00 +18°C° 0 mm 4 mps 754 mmHg 49%
    14:00 +18°C° 0 mm 4 mps 754 mmHg 51%
    15:00 +18°C° 0 mm 4 mps 754 mmHg 52%
    16:00 +17°C° 0 mm 4 mps 754 mmHg 54%
    17:00 +16°C° 0 mm 3 mps 754 mmHg 62%
    18:00 +13°C° 0 mm 3 mps 754 mmHg 71%
    19:00 +11°C° 0 mm 3 mps 755 mmHg 79%
    20:00 +11°C° 0 mm 3 mps 755 mmHg 78%
    21:00 +10°C° 0 mm 3 mps 755 mmHg 77%
    22:00 +10°C° 0 mm 3 mps 756 mmHg 76%
    23:00 +9°C° 0 mm 3 mps 756 mmHg 69%

    24 March, Sunday

    Time Temperature Precipitation Wind Pressure Humidity
    00:00 +8°C° 0 mm 3 mps 756 mmHg 61%
    01:00 +7°C° 0 mm 3 mps 756 mmHg 54%
    02:00 +7°C° 0 mm 3 mps 755 mmHg 54%
    03:00 +5°C° 0 mm 3 mps 755 mmHg 54%
    04:00 +5°C° 0 mm 2 mps 755 mmHg 53%
    05:00 +5°C° 0 mm 2 mps 755 mmHg 56%
    06:00 +5°C° 0 mm 2 mps 755 mmHg 59%
    07:00 +4°C° 0 mm 2 mps 755 mmHg 62%
    08:00 +6°C° 0 mm 2 mps 755 mmHg 57%
    09:00 +7°C° 0 mm 3 mps 755 mmHg 53%
    10:00 +8°C° 0 mm 3 mps 755 mmHg 48%
    11:00 +10°C° 0 mm 2 mps 754 mmHg 46%
    12:00 +12°C° 0 mm 2 mps 754 mmHg 44%
    13:00 +13°C° 0 mm 2 mps 753 mmHg 42%
    14:00 +13°C° 0 mm 2 mps 752 mmHg 43%
    15:00 +13°C° 0 mm 2 mps 752 mmHg 43%
    16:00 +13°C° 0 mm 2 mps 751 mmHg 43%
    17:00 +11°C° 0 mm 1 mps 751 mmHg 47%
    18:00 +10°C° 0 mm 1 mps 751 mmHg 52%
    19:00 +9°C° 0 mm 1 mps 750 mmHg 56%
    20:00 +8°C° 0 mm 1 mps 750 mmHg 58%
    21:00 +8°C° 0 mm 1 mps 750 mmHg 61%
    22:00 +7°C° 0 mm 1 mps 750 mmHg 63%
    23:00 +7°C° 0 mm 1 mps 749 mmHg 63%

    25 March, Monday

    Time Temperature Precipitation Wind Pressure Humidity
    00:00 +5°C° 0 mm 2 mps 749 mmHg 63%
    01:00 +5°C° 0 mm 2 mps 748 mmHg 63%
    02:00 +4°C° 0 mm 3 mps 748 mmHg 64%
    03:00 +5°C° 0 mm 4 mps 748 mmHg 64%
    04:00 +5°C° 0 mm 4 mps 748 mmHg 65%
    05:00 +5°C° 0 mm 5 mps 748 mmHg 66%
    06:00 +3°C° 0 mm 5 mps 747 mmHg 67%
    07:00 +3°C° 0 mm 5 mps 747 mmHg 69%
    08:00 +4°C° 0 mm 6 mps 747 mmHg 66%
    09:00 +5°C° 0 mm 7 mps 747 mmHg 62%
    10:00 +6°C° 0 mm 8 mps 746 mmHg 59%
    11:00 +6°C° 0.1 mm 8 mps 746 mmHg 62%
    12:00 +5°C° 0.1 mm 8 mps 745 mmHg 64%
    13:00 +5°C° 0.1 mm 9 mps 745 mmHg 66%
    14:00 +5°C° 0.4 mm 9 mps 745 mmHg 64%
    15:00 +3°C° 0.4 mm 9 mps 744 mmHg 62%
    16:00 +3°C° 0.4 mm 9 mps 744 mmHg 60%
    17:00 +2°C° 0.1 mm 8 mps 744 mmHg 62%
    18:00 +2°C° 0.1 mm 8 mps 744 mmHg 64%
    19:00 +2°C° 0.1 mm 7 mps 745 mmHg 65%
    20:00 0°C° 0 mm 7 mps 744 mmHg 67%
    21:00 0°C° 0 mm 7 mps 744 mmHg 68%
    22:00 -1°C° 0 mm 7 mps 744 mmHg 69%
    23:00 -1°C° 0.1 mm 8 mps 744 mmHg 69%
    Show more